Home > Weather > Overland Park > Past weeks

Flag for U.S.A. Weather for the Past 2 Weeks in Overland Park, Kansas, U.S.A.

Now
25 °F

Clear.


Feels Like: 11 °F
Forecast: 18 / 29 °F
Wind: 18 mph from Northwest

Location: Johnson County Executive Airport

Current Time: Feb 9, 2016 at 6:15:27 AM

Latest Report: Feb 9, 2016 at 4:53 AM


Visibility: 10 mi

Pressure: 30.08 "Hg

Humidity: 46%

Dew point: 7 °F

Location of Overland ParkLocation

Historic Weather in Overland Park — Graph

°F

Overland Park Temperature Yesterday

Maximum temperature yesterday: 36 °F (at 12:53 AM)
Minimum temperature yesterday: 27 °F (at 10:53 PM)
Average temperature yesterday: 31 °F

High & Low Weather Summary for the Past Weeks

 TemperatureHumidityPressure
High66 °F (Jan 29, 3:53 PM)96% (Feb 2, 6:53 AM)30.45 "Hg (Feb 2, 6:53 AM)
Low18 °F (Feb 4, 3:53 AM)20% (Feb 7, 4:53 PM)29.35 "Hg (Feb 2, 1:53 PM)
Average37 °F65%30.00 "Hg
* Reported Jan 25 3:53 AM — Feb 9 3:53 AM, Overland Park, Weather by CustomWeather, © 2016

Note: Actual official high and low records may vary slightly from our data, if they occured in-between our weather recording intervals... More about our weather records

Advertising

Overland Park Weather History for the Previous 24 Hours

 ConditionsComfort  
Time TempWeatherWind HumidityBarometerVisibility
3:53 AM
Tue, Feb 9
26 °FClear.20 mph50%30.05 "Hg10 mi
2:53 AM27 °FClear.14 mph61%30.06 "Hg10 mi
1:53 AM27 °FClear.12 mph61%30.07 "Hg10 mi
12:53 AM28 °FClear.14 mph64%30.08 "Hg10 mi
11:53 PM
Mon, Feb 8
28 °FClear.12 mph66%30.09 "Hg10 mi
10:53 PM27 °FClear.14 mph66%30.10 "Hg10 mi
9:53 PM28 °FClear.15 mph61%30.12 "Hg10 mi
8:53 PM28 °FClear.15 mph58%30.12 "Hg10 mi
7:53 PM29 °FClear.13 mph54%30.12 "Hg10 mi
6:53 PM30 °FPassing clouds.15 mph51%30.12 "Hg10 mi
5:53 PM31 °FPassing clouds.16 mph49%30.12 "Hg10 mi
4:53 PM33 °FMostly cloudy.18 mph49%30.10 "Hg10 mi
3:53 PM33 °FMostly cloudy.22 mph48%30.09 "Hg10 mi
2:53 PM32 °FMostly cloudy.21 mph54%30.07 "Hg10 mi
1:53 PM32 °FMostly cloudy.20 mph54%30.07 "Hg10 mi
12:53 PM31 °FOvercast.22 mph57%30.08 "Hg9 mi
11:53 AM31 °FOvercast.18 mph52%30.09 "Hg10 mi
10:53 AM30 °FLight snow. Overcast.22 mph59%30.09 "Hg9 mi
9:53 AM30 °FOvercast.20 mph59%30.08 "Hg10 mi
8:53 AM31 °FMostly cloudy.20 mph57%30.05 "Hg10 mi
7:53 AM31 °FPartly sunny.24 mph52%30.03 "Hg10 mi
6:53 AM31 °FMostly cloudy.20 mph73%30.03 "Hg10 mi
Weather by CustomWeather, © 2016

See weather overviewHow to use our weather pages